Location: ??
(35.5386°N, 139.7291°E)
Time: 03:48:45
(UTC+00:00)

Cosmos-2242 - Pass Details

Date: 13 December 2025
Orbit: 566 x 591 km, 82.5° (Epoch: 21 January)

Event Time Altitude Azimuth Distance (km) Brightness Sun altitude
Exits shadow 20:41:20 13° 323° (NW) 1,708 4.8 -12.1°
Maximum altitude 20:44:18 27° 270° (W) 1,124 3.9 -11.6°
Drops below altitude 10° 20:47:55 10° 211° (SSW) 1,914 5.5 -10.9°
Sets 20:50:12 0° 200° (SSW) 2,766 6.4 -10.4°
